Hourly Weather Roundup
Issued by NWS Central Illinois

Home | Current Version | Previous Version | Text Only | Print | Product List | Glossary On
Versions: 1 2 3 4 5 6 7 8 9 10 11 12 13 14 15 16 17 18 19 20 21 22 23 24 25 26 27 28 29 30 31 32 33 34 35 36 37 38 39 40 41 42 43 44 45 46 47 48 49 50
000
NZUS43 KILX 270210
HWRILX

AREA WEATHER ROUNDUP
NATIONAL WEATHER SERVICE, LINCOLN IL
900 PM CDT THU MAR 26 2015


CITY           SKY/WX    TMP DP  RH WIND       PRES   REMARKS
BLOOMINGTON    CLEAR     38  26  62 N6        30.04R WCI  33
CHAMPAIGN      FAIR      34  25  69 NW5       30.03R WCI  30
DECATUR        CLEAR     38  25  59 N7        30.04R WCI  33
EFFINGHAM      CLEAR     40  29  63 NW5       30.05S
FLORA          CLEAR     41  32  71 NW5       30.05R
GALESBURG      CLEAR     33  25  72 N13       30.09R WCI  23
JACKSONVILLE   PTCLDY    40  30  67 NW5       30.06R
LACON          PTCLDY    36  26  65 N8        30.06R WCI  30
LAWRENCEVILLE  CLEAR     39  32  76 NW3       30.03R
LITCHFIELD     CLEAR     40  29  65 NW6       30.06R
$$


CITY           SKY/WX    TMP DP  RH WIND       PRES   REMARKS
LINCOLN        CLEAR     38  28  66 NW3       30.06R
MACOMB         PTCLDY    36  28  72 N10       30.10R WCI  28
MATTOON        PTCLDY    36  30  79 NW7       30.03R WCI  30
MT CARMEL AP   CLEAR     41  34  75 CALM      30.03R
OLNEY-NOBLE AP CLEAR     37  32  81 NW6       30.04R WCI  33
PARIS          CLEAR     38  31  75 N5        30.03S WCI  34
PEORIA         CLEAR     39  23  52 VRB6      30.07R WCI  35
PONTIAC        MOCLDY    37  28  72 N7        30.06R WCI  31
RANTOUL        CLEAR     38  29  70 N5        30.03S WCI  34
ROBINSON       CLEAR     38  32  78 NW5       30.03R WCI  35
SPRINGFIELD    CLEAR     38  27  64 W5        30.06R WCI  34
TAYLORVILLE    FAIR      39  28  65 NW3       30.05R
$$

...REGIONAL REPORTS...


CITY           SKY/WX    TMP DP  RH WIND       PRES   REMARKS
CHICAGO O`HARE CLOUDY    35  21  56 NW9       30.03R WCI  28
KANKAKEE       MOCLDY    36  25  65 CALM      30.05R
MOLINE         CLEAR     34  21  59 N13       30.09R WCI  25
MOUNT VERNON   CLEAR     37  27  65 CALM      30.06R
PITTSFIELD     PTCLDY    41  29  60 NW5       30.07S
QUINCY         MOCLDY    41  27  57 N7        30.07R
ROCKFORD       CLOUDY    34  22  61 NW8       30.07R WCI  27
$$


CITY           SKY/WX    TMP DP  RH WIND       PRES   REMARKS
BURLINGTON     PTCLDY    38  25  59 N10       30.08R WCI  31
CEDAR RAPIDS   PTCLDY    30  21  69 N15       30.11R WCI  19
DES MOINES     CLOUDY    38  23  55 N7        30.15R WCI  33
KIRKSVILLE     CLOUDY    42  27  55 N9        30.09R
OTTUMWA        CLOUDY    38  24  57 N13       30.11R WCI  30
ST LOUIS       FAIR      45  26  47 NW3       30.08R
$$


CITY           SKY/WX    TMP DP  RH WIND       PRES   REMARKS
TERRE HAUTE    CLEAR     41  29  62 N9        30.01R
EVANSVILLE     PTCLDY    41  33  73 W3        30.04R
INDIANAPOLIS   PTCLDY    37  28  70 NW7       29.96S WCI  32
LAFAYETTE      CLEAR     36  24  62 NW12      30.02R WCI  28
MADISON        CLOUDY    31  16  54 N16       30.07R WCI  20
MILWAUKEE      MOCLDY    31  15  52 N15       30.05R WCI  20
$$




USA.gov is the U.S. government's official web portal to all federal, state and local government web resources and services.